Weather History for Greenville, ME

Change the Weather History Date:

Tuesday, November 8, 2011

  Actual Average (KMLT) Record (KMLT)
Temperature  
Mean Temperature 50 °F 38 °F  
Max Temperature 57 °F 45 °F 69 °F (1938)
Min Temperature 42 °F 30 °F 15 °F (1960)
Degree Days  
Heating Degree Days 16 27  
Month to date heating degree days 209  
Since 1 July heating degree days 1143  
Cooling Degree Days 0 0  
Month to date cooling degree days 0  
Year to date cooling degree days 268  
Moisture  
Dew Point 30 °F    
Average Humidity 49    
Maximum Humidity 71    
Minimum Humidity 29    
Precipitation  
Precipitation 0.00 in 0.15 in 1.70 in (1947)
Month to date precipitation 1.06  
Year to date precipitation 35.78  
Sea Level Pressure  
Sea Level Pressure 30.16 in    
Wind  
Wind Speed 3 mph (NW)    
Max Wind Speed 9 mph    
Max Gust Speed 21 mph    
T = Trace of Precipitation, MM = Missing Value Source: NWS Daily Summary

Daily Weather History Graph

Daily Weather History Graph

Search for Another Location

Airport:

Trip Planner

Search our weather history database for the weather conditions in past years. The results will help you decide how hot, cold, wet, or windy it might be!

Date:

Astronomy

Nov. 08, 2011 Rise Set
Actual Time 6:27 AM EST 4:16 PM EST
Civil Twilight 5:55 AM EST 4:47 PM EST
Nautical Twilight 5:20 AM EST 5:23 PM EST
Astronomical Twilight 4:45 AM EST 5:57 PM EST
Moon 2:57 PM EST (11/8) 4:19 AM EST (11/8)
Length of Visible Light 10h 52m
Length of Day
9h 49m
Waxing Gibbous, 96% of the Moon is Illuminated
Nov 8
Waxing Gibbous
Nov 10
Full
Nov 18
Last Quarter
Nov 25
New
Dec 2
First Quarter

Hourly Weather History & Observations

Time (EST) Temp. Windchill Dew Point Humidity Pressure Visibility Wind Dir Wind Speed Gust Speed Precip Events Conditions
12:56 AM 51.1 °F - 41.0 °F 68% 30.06 in - Variable 3.5 mph - N/A   Unknown
1:56 AM 50.0 °F - 41.0 °F 71% 30.08 in - Calm Calm - N/A   Unknown
2:56 AM 48.0 °F - 37.9 °F 68% 30.09 in - NW 4.6 mph - N/A   Unknown
3:56 AM 46.0 °F 43.1 °F 36.0 °F 68% 30.10 in - Variable 5.8 mph - N/A   Unknown
4:56 AM 45.0 °F 41.8 °F 35.1 °F 68% 30.12 in - Variable 5.8 mph - N/A   Unknown
5:56 AM 42.1 °F - 33.1 °F 70% 30.14 in - Calm Calm - N/A   Unknown
6:56 AM 42.1 °F - 30.9 °F 65% 30.15 in - Calm Calm - N/A   Unknown
7:56 AM 46.9 °F - 28.9 °F 50% 30.16 in - Calm Calm - N/A   Unknown
8:56 AM 50.0 °F - 28.9 °F 44% 30.16 in - Calm Calm - N/A   Unknown
9:56 AM 53.1 °F - 28.9 °F 40% 30.16 in - Variable 4.6 mph - N/A   Unknown
10:56 AM 54.0 °F - 28.0 °F 37% 30.15 in - NW 9.2 mph 18.4 mph N/A   Unknown
11:56 AM 55.9 °F - 27.0 °F 33% 30.14 in - Variable 5.8 mph - N/A   Unknown
12:56 PM 57.0 °F - 25.0 °F 29% 30.12 in - Variable 6.9 mph 20.7 mph N/A   Unknown
1:56 PM 57.0 °F - 25.0 °F 29% 30.14 in - Variable 5.8 mph - N/A   Unknown
2:56 PM 55.0 °F - 26.1 °F 33% 30.14 in - Calm Calm - N/A   Unknown
3:56 PM 52.0 °F - 26.1 °F 37% 30.17 in - Variable 3.5 mph - N/A   Unknown
4:56 PM 48.0 °F - 27.0 °F 44% 30.17 in - Calm Calm - N/A   Unknown
5:56 PM 48.0 °F - 26.1 °F 42% 30.19 in - Calm Calm - N/A   Unknown
6:56 PM 46.9 °F - 27.0 °F 46% 30.21 in - Variable 3.5 mph - N/A   Unknown
7:56 PM 45.0 °F - 27.0 °F 49% 30.22 in - Calm Calm - N/A   Unknown
8:56 PM 45.0 °F - 27.0 °F 49% 30.24 in - Calm Calm - N/A   Unknown
9:56 PM 48.9 °F - 27.0 °F 43% 30.22 in - Variable 3.5 mph - N/A   Unknown
10:56 PM 46.0 °F - 28.9 °F 51% 30.21 in - Calm Calm - N/A   Unknown
11:56 PM 46.9 °F - 28.9 °F 50% 30.20 in - Calm Calm - N/A   Unknown